FALCON 9 DEB (49183 NORAD) Tracking and Keplerian Element Data

This shows tracking and keplerian element data for the satellite.

Feedback or suggestion? Click here.




ElementValue
Catalog49183
NameFALCON 9 DEB
Epoch Orbit318
Epoch Day276.388227
Epoch Year2021
RAAN70.2669
Inclination69.9829
Eccentricity0.0007434
Argument of Perigee141.8689
Mean Anonmoly218.3072
Mean Motion16.45864133
Decay Rate0.09246798
L11 49183U 21082BF 21276.38822700 .09246798 44802-5 21666-3 0 9998
L22 49183 69.9829 70.2669 0007434 141.8689 218.3072 16.45864133 3181



Live tracking and technical data element details for FALCON 9 DEB (NORAD 49183). FALCON 9 DEB can be tracked NOW for your location showing map with azimuth and elevation plus other details from your city location.







IsCatalogInMostPopularTable: catalog: 49183, numindb: 47
Update: records affected: 1



GetName: 49183 FALCON 9 DEB

Hit Count: updated at: Sun, 28 May 2023 06:44:49 GMT